ATLAS 5 CENTAUR DEB, 44679

Orbit data source: Space-Track

ATLAS 5 CENTAUR DEB, 44679 is space debris in HEO originally from a launch on Wed, 17 Oct 2018 UTC launched from the Air Force Eastern Test Range (AFETR). Debris objects in space refer to the collection of defunct objects orbiting the Earth. Examples of debris include non-operational satellites, rocket bodies, and fragments generated from explosions, collisions, or faulty payload assembly.

Loading next visibility...
Identifier
44679, 2018-079AR
Orbit
HEO
Country
Flag of USUS
Related business
Flag of USUnited Launch Alliance/Lockheed Martin (US)
Manufacturer
ULA Decatur
Mission
Spacecraft
Bus & Motor
Unknown
Mass
Unknown
Launch date (UTC)
2018-10-17 (8 years ago)
Launch vehicle
Unknown
Launch site
Air Force Eastern Test Range (AFETR)
Object type
Payload
Rocket body
Debris
Shape & HBR
Unknown shape, 1.1 m
Radar Cross Section
Medium (>0.1 m² and <1 m²)

Expand to show TLE details & history
Last TLE update: 23 hours ago

TLE from 23 hours ago
0 ATLAS 5 CENTAUR DEB
1 44679U 18079AR  26206.55916324 -.00000142  00000-0  00000-0 0  9994
2 44679  13.4747  35.8650 4691816 310.4313  17.0495  1.79400382 47365
Epoch: 2026-07-25T13:25Z
TLE epoch observation values (Epoch: 2026-07-25T13:25:11.703Z)
Latitude
0.00001°
Longitude
-108.67547°
Altitude
10,747.615 km
Speed
5.711 km/s
True Right ascension
02h 23m 34s
True Declination
0° 00' 00"
Sunlit
Object was in daylight at epoch
Visualization orbit readout
Latitude
Unknown
Longitude
Unknown
Altitude
Unknown
Speed
Unknown
Apparent Right ascension
Unknown
Apparent Declination
Unknown
Sunlit
N/A
Visualization observer readout
Local Sidereal Time
01:14:19
Azimuth
Unknown
Elevation
Unknown
Doppler factor
Unknown
Orbital elements
Apogee altitude
35,658.359 km
Perigee altitude
8,809.738 km
Semi-major axis
28,612.185 km
Eccentricity
0.46918
Inclination
13.4747°
RAAN
35.865°
Arg. of periapsis
310.4313°
True anomaly
49.27452°
Mean anomaly
17.0495°
Eccentric anomaly
30.82395°
Mean motion
0.44845 °/min
Orbital period
802.76 mins
BSTAR
0
Loading maneuver chart data...
Computing Atmospheric mass density...

Documentation

Showing up to 5 results
|